Location: Central Falls
(41.8900°N, 71.3929°W)
Time: 02:10:08
(UTC+00:00)

Vanguard 2 - Pass Details

Date: 03 December 2023
Orbit: 554 x 2918 km, 32.9° (Epoch: 01 March)

Event Time Altitude Azimuth Distance (km) Brightness Sun altitude
Rises 01:02:07 0° 218° (SW) 6,738 12.7 -41.6°
Reaches altitude 10° 01:07:15 10° 210° (SSW) 5,736 12.1 -42.5°
Enters shadow 01:18:06 32° 176° (S) 3,972 10.9 -44.5°
Maximum altitude 01:21:54 35° 154° (SSE) 3,664 - -45.2°
Drops below altitude 10° 01:33:25 10° 95° (E) 4,532 - -47.3°
Sets 01:36:52 0° 87° (E) 5,222 - -47.9°
